Home > Weather > Phuntsholing > Past weeks

Flag for Bhutan Weather for the Past 2 Weeks in Phuntsholing, Bhutan

Now
90 °F

Broken clouds.


Feels Like: 103 °F
Forecast: 71 / 90 °F
Wind: 5 mph from South

Location: Agartala Airport

Current Time: May 3, 2016 at 3:19:47 PM

Latest Report: May 3, 2016 at 2:30 PM


Visibility: 4 mi

Pressure: 29.74 "Hg

Humidity: 67%

Dew Point: 77 °F

Location of PhuntsholingLocation

Historic Weather in Phuntsholing — Graph

°F

Phuntsholing Temperature Yesterday

Maximum temperature yesterday: 86 °F (at 11:00 AM)
Minimum temperature yesterday: 70 °F (at 6:00 AM)
Average temperature yesterday: 76 °F

High & Low Weather Summary for the Past Weeks

 TemperatureHumidityPressure
High97 °F (Apr 24, 12:30 PM)94% (Apr 26, 6:00 AM)29.83 "Hg (Apr 26, 6:00 AM)
Low70 °F (May 2, 6:00 AM)53% (Apr 20, 1:30 PM)29.47 "Hg (Apr 23, 3:00 PM)
Average89 °F71%29.66 "Hg
* Reported Apr 18 2:00 PM — May 3 2:00 PM, Phuntsholing, Weather by CustomWeather, © 2016

Note: Actual official high and low records may vary slightly from our data, if they occured in-between our weather recording intervals... More about our weather records

Advertising

Phuntsholing Weather History for the Previous 24 Hours

Scroll right to see more
 ConditionsComfort  
Time TempWeatherWind HumidityBarometerVisibility
2:00 PM
Tue, May 3
90 °FBroken clouds.5 mph67%29.74 "Hg4 mi
1:30 PM90 °FBroken clouds.5 mph63%29.74 "Hg4 mi
1:00 PM90 °FBroken clouds.5 mph63%29.77 "Hg4 mi
12:30 PM90 °FBroken clouds.3 mph63%29.77 "Hg4 mi
12:00 PM90 °FBroken clouds.5 mph63%29.80 "Hg4 mi
11:30 AM88 °FBroken clouds.3 mph62%29.80 "Hg4 mi
11:00 AM86 °FBroken clouds.3 mph66%29.80 "Hg4 mi
10:30 AM86 °FPartly sunny.3 mph66%29.80 "Hg4 mi
10:00 AM84 °FPassing clouds.3 mph62%29.80 "Hg4 mi
9:30 AM84 °FHaze.3 mph62%29.80 "Hg3 mi
9:00 AM82 °FHaze.3 mph66%29.80 "Hg3 mi
8:30 AM82 °FFog.No wind74%29.80 "Hg3 mi
7:00 AM75 °FFog.No wind83%29.77 "HgN/A
6:00 AM70 °FFog.3 mph88%29.74 "Hg2 mi
8:00 PM
Mon, May 2
72 °FFog.3 mph94%29.74 "Hg2 mi
7:30 PM72 °FFog.6 mph94%29.74 "Hg2 mi
6:30 PM73 °FThunderstorms. Partly cloudy.3 mph89%29.71 "Hg2 mi
6:00 PM73 °FThunderstorms. Partly cloudy.7 mph89%29.71 "Hg2 mi
5:30 PM75 °FThunderstorms. Broken clouds.6 mph89%29.71 "Hg2 mi
5:00 PM75 °FThunderstorms. Broken clouds.3 mph89%29.71 "Hg2 mi
4:30 PM75 °FThunderstorms. Broken clouds.5 mph89%29.71 "Hg2 mi
4:00 PM75 °FThunderstorms. Broken clouds.3 mph89%29.71 "Hg2 mi
3:30 PM75 °FThunderstorms. Broken clouds.3 mph89%29.71 "Hg3 mi
3:00 PM77 °FThunderstorms. Broken clouds.6 mph79%29.68 "Hg3 mi
Weather by CustomWeather, © 2016

See weather overviewHow to use our weather pages